TVJ46U EDDN-ETSI

Flight info

Callsign TVJ46U
Flight time N/A
Altitude 13000
Route BOLSI1G/28 BOLSI DCT GOLMO STAY1/0100 DCT
Aircraft A320/M-SDE3FGHIRWY/LB1

Departure

Time 2026-04-27 16:58
Airport Nuremberg Airport (EDDN)

Arrival

Time N/A
Airport Ingolstadt Manching Airport (ETSI)
Time Latitude Longitude Altitude Speed Heading
2026-04-27 16:46 49.49561 11.08438 1033 ft 0 kts
2026-04-27 16:54 49.49572 11.08436 1033 ft 2 kts 349°
2026-04-27 16:55 49.49578 11.08433 1033 ft 0 kts 337°
2026-04-27 16:55 49.49578 11.08432 1033 ft 0 kts 336°
2026-04-27 16:55 49.49601 11.08418 1033 ft 11 kts 338°
2026-04-27 16:55 49.49625 11.08421 1034 ft 0 kts 25°
2026-04-27 16:57 49.49635 11.08429 1034 ft 8 kts 31°
2026-04-27 16:57 49.49683 11.08525 1035 ft 11 kts 52°
2026-04-27 16:57 49.49746 11.08571 1037 ft 10 kts 11°
2026-04-27 16:57 49.49797 11.08540 1037 ft 6 kts 280°
2026-04-27 16:58 49.49803 11.08474 1036 ft 31 kts 278°
2026-04-27 16:58 49.49881 11.07711 1027 ft 109 kts 278°
2026-04-27 16:58 49.50019 11.06259 1057 ft 159 kts 279°
2026-04-27 16:58 49.50172 11.04541 1659 ft 162 kts 280°
2026-04-27 16:59 49.50337 11.02842 2404 ft 160 kts 281°
2026-04-27 16:59 49.50508 11.01141 3097 ft 163 kts 281°
2026-04-27 16:59 49.50695 10.99336 3453 ft 184 kts 281°
2026-04-27 16:59 49.50906 10.97274 3778 ft 207 kts 280°
2026-04-27 17:00 49.51226 10.93287 4379 ft 245 kts 267°
2026-04-27 17:00 49.50443 10.89844 5285 ft 267 kts 246°
2026-04-27 17:00 49.49630 10.87258 6302 ft 269 kts 246°
2026-04-27 17:01 49.48817 10.84648 7276 ft 272 kts 246°
2026-04-27 17:01 49.47998 10.81999 8229 ft 276 kts 246°
2026-04-27 17:01 49.46963 10.79447 9169 ft 282 kts 229°
2026-04-27 17:01 49.45394 10.77656 10106 ft 291 kts 206°
2026-04-27 17:02 49.43403 10.76990 10888 ft 302 kts 181°
2026-04-27 17:02 49.41255 10.77781 11218 ft 330 kts 155°
2026-04-27 17:02 49.39169 10.79416 11833 ft 341 kts 153°
2026-04-27 17:02 49.37080 10.81102 12631 ft 345 kts 153°
2026-04-27 17:03 49.36358 10.81686 12832 ft 348 kts 153°
2026-04-27 17:03 49.32792 10.84549 13159 ft 344 kts 154°
2026-04-27 17:03 49.30686 10.86217 13188 ft 331 kts 154°
2026-04-27 17:03 49.28681 10.87794 13184 ft 327 kts 154°
2026-04-27 17:04 49.26658 10.89375 13185 ft 326 kts 154°
2026-04-27 17:04 49.24611 10.90968 13190 ft 326 kts 154°
2026-04-27 17:04 49.22575 10.92486 13183 ft 325 kts 156°
2026-04-27 17:04 49.20535 10.93879 13180 ft 325 kts 158°
2026-04-27 17:05 49.18429 10.95245 13182 ft 324 kts 159°
2026-04-27 17:05 49.16347 10.96568 13165 ft 323 kts 159°
2026-04-27 17:05 49.14291 10.97878 12903 ft 317 kts 159°
2026-04-27 17:05 49.12951 10.98739 12724 ft 313 kts 159°
2026-04-27 17:06 49.10297 11.00461 12342 ft 308 kts 159°
2026-04-27 17:06 49.08330 11.01747 11952 ft 307 kts 159°
2026-04-27 17:06 49.06365 11.03031 11565 ft 307 kts 159°
2026-04-27 17:06 49.04399 11.04316 11168 ft 307 kts 159°
2026-04-27 17:07 49.02460 11.05584 10770 ft 307 kts 159°
2026-04-27 17:07 49.00469 11.06882 10358 ft 307 kts 159°
2026-04-27 17:07 48.98503 11.08166 9937 ft 308 kts 159°
2026-04-27 17:07 48.96585 11.09420 9700 ft 300 kts 158°
2026-04-27 17:08 48.94656 11.10679 9303 ft 298 kts 158°
2026-04-27 17:08 48.92754 11.11917 8896 ft 297 kts 159°
2026-04-27 17:08 48.90893 11.13127 8430 ft 293 kts 158°
2026-04-27 17:08 48.89000 11.14355 7889 ft 291 kts 158°
2026-04-27 17:09 48.87165 11.15543 7400 ft 289 kts 158°
2026-04-27 17:09 48.85926 11.16347 7096 ft 285 kts 158°
2026-04-27 17:09 48.83535 11.17897 6508 ft 278 kts 158°
2026-04-27 17:09 48.81761 11.19050 6062 ft 270 kts 158°
2026-04-27 17:10 48.80623 11.19788 5781 ft 266 kts 158°
2026-04-27 17:10 48.78938 11.20879 5360 ft 260 kts 157°
2026-04-27 17:10 48.77296 11.21943 4950 ft 253 kts 157°
2026-04-27 17:10 48.75693 11.22977 4533 ft 247 kts 156°
2026-04-27 17:11 48.74137 11.23976 4286 ft 235 kts 156°
2026-04-27 17:11 48.71220 11.25850 4133 ft 225 kts 156°
2026-04-27 17:11 48.69783 11.26774 4034 ft 224 kts 156°
2026-04-27 17:12 48.67024 11.28801 3837 ft 212 kts 134°
2026-04-27 17:12 48.66268 11.30607 3737 ft 200 kts 103°
2026-04-27 17:12 48.66224 11.32649 3569 ft 193 kts 76°
2026-04-27 17:13 48.66520 11.34628 3408 ft 192 kts 76°
2026-04-27 17:13 48.66803 11.36565 3275 ft 185 kts 76°
2026-04-27 17:13 48.67069 11.38406 3094 ft 172 kts 75°
2026-04-27 17:14 48.67269 11.39730 3002 ft 158 kts 73°
2026-04-27 17:14 48.67638 11.41211 2815 ft 144 kts 65°
2026-04-27 17:14 48.68003 11.42584 2603 ft 138 kts 65°
2026-04-27 17:14 48.68356 11.43916 2402 ft 136 kts 66°
2026-04-27 17:15 48.68707 11.45238 2202 ft 134 kts 65°
2026-04-27 17:15 48.69054 11.46549 2018 ft 134 kts 67°
2026-04-27 17:15 48.69405 11.47875 1826 ft 139 kts 68°
2026-04-27 17:15 48.69770 11.49277 1676 ft 146 kts 69°
2026-04-27 17:16 48.70155 11.50719 1411 ft 149 kts 69°
2026-04-27 17:16 48.70524 11.52146 1228 ft 137 kts 69°
2026-04-27 17:16 48.70844 11.53354 1207 ft 115 kts 68°
2026-04-27 17:16 48.71228 11.54787 1352 ft 166 kts 69°
2026-04-27 17:17 48.71660 11.56441 1794 ft 178 kts 68°
2026-04-27 17:17 48.72137 11.58338 2022 ft 203 kts 71°
2026-04-27 17:17 48.72201 11.60490 2281 ft 216 kts 104°
2026-04-27 17:18 48.70026 11.63348 2654 ft 221 kts 174°
2026-04-27 17:18 48.68525 11.62956 2679 ft 221 kts 209°
2026-04-27 17:18 48.67438 11.61374 2687 ft 220 kts 240°
2026-04-27 17:18 48.66769 11.59297 2684 ft 220 kts 248°
2026-04-27 17:19 48.66181 11.57162 2681 ft 220 kts 249°
2026-04-27 17:19 48.65620 11.55038 2684 ft 216 kts 250°
2026-04-27 17:19 48.65083 11.53019 2667 ft 200 kts 250°
2026-04-27 17:19 48.64557 11.51049 2365 ft 198 kts 250°
2026-04-27 17:20 48.64044 11.49133 2108 ft 195 kts 250°
2026-04-27 17:20 48.63786 11.47186 2081 ft 176 kts 282°
2026-04-27 17:20 48.64367 11.45851 2108 ft 144 kts 335°
2026-04-27 17:20 48.65291 11.45536 2106 ft 133 kts 355°
2026-04-27 17:21 48.66248 11.45418 2174 ft 145 kts 360°
2026-04-27 17:21 48.67287 11.45419 2116 ft 154 kts
2026-04-27 17:21 48.68320 11.45741 1945 ft 150 kts 28°
2026-04-27 17:21 48.69031 11.46799 1797 ft 141 kts 59°
2026-04-27 17:22 48.69448 11.48105 1645 ft 138 kts 67°
2026-04-27 17:22 48.69801 11.49437 1530 ft 136 kts 70°
2026-04-27 17:22 48.70157 11.50779 1402 ft 139 kts 68°
2026-04-27 17:22 48.70522 11.52128 1225 ft 134 kts 69°
2026-04-27 17:23 48.70836 11.53314 1208 ft 114 kts 68°
2026-04-27 17:23 48.71216 11.54721 1419 ft 163 kts 68°
2026-04-27 17:23 48.71664 11.56349 2184 ft 171 kts 66°
2026-04-27 17:23 48.71987 11.58163 2596 ft 188 kts 90°
2026-04-27 17:24 48.71560 11.60035 2678 ft 195 kts 128°
2026-04-27 17:24 48.70423 11.61134 2677 ft 203 kts 167°
2026-04-27 17:24 48.69055 11.60950 2675 ft 201 kts 207°
2026-04-27 17:24 48.68039 11.59542 2670 ft 200 kts 244°
2026-04-27 17:25 48.67605 11.57501 2762 ft 211 kts 253°
2026-04-27 17:25 48.67127 11.55355 2724 ft 218 kts 250°
2026-04-27 17:25 48.66581 11.53200 2649 ft 221 kts 250°
2026-04-27 17:25 48.66038 11.51114 2497 ft 204 kts 249°
2026-04-27 17:26 48.65532 11.49202 2298 ft 188 kts 249°
2026-04-27 17:26 48.65083 11.47397 2185 ft 181 kts 260°
2026-04-27 17:26 48.65150 11.45625 2107 ft 166 kts 295°
2026-04-27 17:26 48.65857 11.44326 2074 ft 159 kts 332°
2026-04-27 17:27 48.66878 11.43817 2110 ft 151 kts 350°
2026-04-27 17:27 48.67859 11.43968 2168 ft 143 kts 32°
2026-04-27 17:27 48.68510 11.45069 2167 ft 141 kts 57°
2026-04-27 17:27 48.68946 11.46422 2041 ft 145 kts 66°
2026-04-27 17:28 48.69319 11.47814 1842 ft 141 kts 67°
2026-04-27 17:28 48.69719 11.49171 1657 ft 141 kts 67°
2026-04-27 17:28 48.70464 11.51908 1254 ft 138 kts 68°
2026-04-27 17:29 48.70790 11.53128 1207 ft 111 kts 69°
2026-04-27 17:29 48.71092 11.54271 1208 ft 146 kts 68°
2026-04-27 17:29 48.71511 11.55879 1687 ft 173 kts 69°
2026-04-27 17:29 48.71949 11.57629 2481 ft 184 kts 69°
2026-04-27 17:30 48.72045 11.59611 2654 ft 194 kts 104°
2026-04-27 17:30 48.70013 11.61913 2683 ft 199 kts 182°
2026-04-27 17:30 48.68734 11.61198 2685 ft 199 kts 221°
2026-04-27 17:31 48.67951 11.59522 2692 ft 199 kts 245°
2026-04-27 17:31 48.67397 11.57602 2688 ft 198 kts 249°
2026-04-27 17:31 48.66881 11.55671 2691 ft 195 kts 249°
2026-04-27 17:31 48.66395 11.53811 2488 ft 188 kts 249°
2026-04-27 17:32 48.65915 11.51990 2258 ft 183 kts 249°
2026-04-27 17:32 48.65634 11.48487 1938 ft 160 kts 295°
2026-04-27 17:32 48.66191 11.47167 1928 ft 142 kts 318°
2026-04-27 17:33 48.67017 11.46340 1885 ft 144 kts 336°
2026-04-27 17:33 48.67972 11.45833 1911 ft 147 kts 353°
2026-04-27 17:33 48.68951 11.46078 1868 ft 141 kts 32°
2026-04-27 17:33 48.69443 11.47241 1800 ft 133 kts 81°
2026-04-27 17:34 48.69635 11.48636 1714 ft 140 kts 71°
2026-04-27 17:34 48.69977 11.50027 1539 ft 144 kts 69°
2026-04-27 17:34 48.70341 11.51433 1293 ft 142 kts 69°
2026-04-27 17:34 48.70682 11.52741 1209 ft 119 kts 68°
2026-04-27 17:35 48.71030 11.54044 1247 ft 162 kts 69°
2026-04-27 17:35 48.71462 11.55781 1789 ft 186 kts 69°
2026-04-27 17:35 48.71883 11.57571 2468 ft 182 kts 72°
2026-04-27 17:35 48.71914 11.59522 2639 ft 196 kts 107°
2026-04-27 17:36 48.71104 11.61195 2688 ft 200 kts 146°
2026-04-27 17:36 48.69801 11.61772 2712 ft 202 kts 184°
2026-04-27 17:36 48.68433 11.60942 3362 ft 219 kts 219°
2026-04-27 17:36 48.67524 11.59140 3488 ft 211 kts 244°
2026-04-27 17:37 48.66921 11.57159 3683 ft 214 kts 248°
2026-04-27 17:37 48.66332 11.55033 3899 ft 222 kts 248°
2026-04-27 17:37 48.65744 11.52875 3971 ft 222 kts 249°
2026-04-27 17:37 48.65153 11.50707 3982 ft 223 kts 249°
2026-04-27 17:38 48.64564 11.48550 3984 ft 222 kts 248°
2026-04-27 17:38 48.64237 11.46297 3981 ft 219 kts 276°
2026-04-27 17:38 48.64755 11.44185 3989 ft 216 kts 307°
2026-04-27 17:38 48.65722 11.42444 3984 ft 216 kts 320°
2026-04-27 17:39 48.67051 11.41572 3846 ft 212 kts
2026-04-27 17:39 48.68350 11.42330 3744 ft 204 kts 39°
2026-04-27 17:39 48.69400 11.43900 3147 ft 218 kts 52°
2026-04-27 17:39 48.70197 11.45898 2338 ft 225 kts 66°
2026-04-27 17:40 48.70752 11.48074 1681 ft 212 kts 70°
2026-04-27 17:40 48.71278 11.50068 1459 ft 195 kts 69°
2026-04-27 17:40 48.71761 11.51895 1276 ft 174 kts 69°
2026-04-27 17:40 48.72230 11.53703 1462 ft 195 kts 68°
2026-04-27 17:41 48.72712 11.55576 2201 ft 188 kts 68°
2026-04-27 17:41 48.73374 11.57281 2616 ft 190 kts 41°
2026-04-27 17:41 48.74553 11.58062 2676 ft 188 kts
2026-04-27 17:41 48.75784 11.57513 2680 ft 189 kts 323°
2026-04-27 17:42 48.76501 11.55875 2681 ft 192 kts 284°
2026-04-27 17:42 48.76417 11.53844 2686 ft 197 kts 256°
2026-04-27 17:42 48.75979 11.51825 2674 ft 216 kts 251°
2026-04-27 17:42 48.75444 11.49596 2684 ft 231 kts 251°
2026-04-27 17:43 48.74884 11.47299 2686 ft 233 kts 250°
2026-04-27 17:43 48.74320 11.44983 2684 ft 235 kts 251°
2026-04-27 17:43 48.73755 11.42627 3091 ft 238 kts 254°
2026-04-27 17:43 48.73533 11.40165 4103 ft 237 kts 268°
2026-04-27 17:44 48.73458 11.37660 5108 ft 239 kts 268°
2026-04-27 17:44 48.73391 11.35175 6095 ft 239 kts 268°
2026-04-27 17:44 48.73328 11.32559 6705 ft 261 kts 268°
2026-04-27 17:44 48.73256 11.29750 7447 ft 271 kts 268°